User: anonymous   Login
Location: Stamford Observatory
(41.1241°N, 73.5498°W)
Time: 13:06:00
(UTC-05:00)
Language:

IRS-P3 - Orbit

View from above orbital plane
View from above orbital plane
View from above satellite
View from above satellite

Ground track
Ground track

The orbit data is extracted from the following two-line orbital elements,

1 23827U 96017A   14331.91761600  .00000250  00000-0  13220-3 0  1627
2 23827 098.6394 267.6009 0003025 196.1145 205.6341 14.22270563969883
Epoch (UTC): 27 November 2014 22:01:22
Eccentricity: 0.0003025
inclination: 98.6394°
perigee height: 815 km
apogee height: 820 km
right ascension of ascending node: 267.6009°
argument of perigee: 196.1145°
revolutions per day: 14.22270563
mean anomaly at epoch: 205.6341°
orbit number at epoch: 96988

The dashed part of the orbit path shows where the satellite is in the earth's shadow,  

DLR